When you browse on this site, cookies collect data to enhance your experience and personalize the content and advertising you see.
Visit our Privacy Policy to learn more. By continuing to use the site, you agree to this use of cookies and data.
  • In Schweiz
  • Länderverzeichnis
  • Für 7 Tage
  • Wassertemperatur
  • Wetterkarte
  • Widgets
  • user-avatar
    Anmelden

    Stündliche Wetter Troickiy

    Heute, 26 August, Montag

    Zeit Temperatur Niederschläge Wind Luftdruck Luftfeuchtigkeit
    00:00 +12°C° 0 mm 3 m/S 754 mmHg 91%
    01:00 +13°C° 0 mm 2 m/S 754 mmHg 91%
    02:00 +12°C° 0 mm 2 m/S 754 mmHg 91%
    03:00 +12°C° 0 mm 1 m/S 755 mmHg 91%
    04:00 +11°C° 0 mm 1 m/S 755 mmHg 91%
    05:00 +11°C° 0 mm 1 m/S 754 mmHg 91%
    06:00 +10°C° 0 mm 0 m/S 754 mmHg 91%
    07:00 +12°C° 0 mm 0 m/S 755 mmHg 85%
    08:00 +13°C° 0 mm 0 m/S 755 mmHg 79%
    09:00 +15°C° 0 mm 0 m/S 755 mmHg 73%
    10:00 +16°C° 0 mm 0 m/S 755 mmHg 68%
    11:00 +18°C° 0 mm 0 m/S 754 mmHg 64%
    12:00 +21°C° 0 mm 1 m/S 754 mmHg 60%
    13:00 +21°C° 0 mm 1 m/S 754 mmHg 58%
    14:00 +21°C° 0 mm 2 m/S 754 mmHg 57%
    15:00 +21°C° 0 mm 2 m/S 753 mmHg 56%
    16:00 +21°C° 0 mm 2 m/S 753 mmHg 60%
    17:00 +20°C° 0 mm 2 m/S 752 mmHg 64%
    18:00 +20°C° 0 mm 2 m/S 752 mmHg 68%
    19:00 +19°C° 0 mm 2 m/S 752 mmHg 72%
    20:00 +17°C° 0 mm 2 m/S 751 mmHg 76%
    21:00 +16°C° 0 mm 2 m/S 751 mmHg 80%
    22:00 +16°C° 0 mm 3 m/S 751 mmHg 81%
    23:00 +16°C° 0 mm 3 m/S 750 mmHg 81%

    Morgen, 27 August, Dienstag

    Zeit Temperatur Niederschläge Wind Luftdruck Luftfeuchtigkeit
    00:00 +14°C° 0 mm 3 m/S 750 mmHg 82%
    01:00 +14°C° 0 mm 3 m/S 750 mmHg 82%
    02:00 +14°C° 0 mm 3 m/S 749 mmHg 83%
    03:00 +14°C° 0 mm 4 m/S 749 mmHg 83%
    04:00 +14°C° 0 mm 4 m/S 749 mmHg 84%
    05:00 +14°C° 0 mm 4 m/S 748 mmHg 84%
    06:00 +14°C° 0 mm 5 m/S 748 mmHg 85%
    07:00 +15°C° 0.1 mm 5 m/S 748 mmHg 84%
    08:00 +16°C° 0.1 mm 5 m/S 747 mmHg 83%
    09:00 +17°C° 0.1 mm 5 m/S 747 mmHg 82%
    10:00 +19°C° 0.6 mm 5 m/S 747 mmHg 78%
    11:00 +20°C° 0.6 mm 5 m/S 747 mmHg 74%
    12:00 +21°C° 0.6 mm 6 m/S 747 mmHg 70%
    13:00 +21°C° 0.1 mm 6 m/S 747 mmHg 66%
    14:00 +22°C° 0.1 mm 6 m/S 747 mmHg 62%
    15:00 +22°C° 0.1 mm 6 m/S 747 mmHg 59%
    16:00 +22°C° 0 mm 5 m/S 747 mmHg 62%
    17:00 +21°C° 0 mm 4 m/S 747 mmHg 65%
    18:00 +20°C° 0 mm 3 m/S 747 mmHg 68%
    19:00 +19°C° 0 mm 3 m/S 747 mmHg 71%
    20:00 +17°C° 0 mm 4 m/S 748 mmHg 74%
    21:00 +15°C° 0 mm 4 m/S 748 mmHg 77%
    22:00 +14°C° 0 mm 4 m/S 748 mmHg 79%
    23:00 +13°C° 0 mm 3 m/S 749 mmHg 82%

    übermorgen, 28 August, Mittwoch

    Zeit Temperatur Niederschläge Wind Luftdruck Luftfeuchtigkeit
    00:00 +12°C° 0 mm 3 m/S 749 mmHg 84%
    01:00 +11°C° 0 mm 3 m/S 749 mmHg 86%
    02:00 +11°C° 0 mm 3 m/S 749 mmHg 88%
    03:00 +10°C° 0 mm 3 m/S 749 mmHg 89%
    04:00 +10°C° 0 mm 3 m/S 750 mmHg 90%
    05:00 +8°C° 0 mm 4 m/S 750 mmHg 90%
    06:00 +8°C° 0 mm 4 m/S 750 mmHg 90%
    07:00 +10°C° 0 mm 4 m/S 750 mmHg 83%
    08:00 +10°C° 0 mm 5 m/S 751 mmHg 75%
    09:00 +12°C° 0 mm 5 m/S 751 mmHg 68%
    10:00 +13°C° 0 mm 5 m/S 751 mmHg 64%
    11:00 +14°C° 0 mm 6 m/S 751 mmHg 61%
    12:00 +15°C° 0 mm 6 m/S 751 mmHg 58%
    13:00 +15°C° 0 mm 6 m/S 751 mmHg 55%
    14:00 +15°C° 0 mm 6 m/S 751 mmHg 52%
    15:00 +15°C° 0 mm 6 m/S 751 mmHg 49%
    16:00 +15°C° 0 mm 5 m/S 751 mmHg 53%
    17:00 +14°C° 0 mm 4 m/S 751 mmHg 57%
    18:00 +14°C° 0 mm 4 m/S 751 mmHg 60%
    19:00 +12°C° 0 mm 3 m/S 752 mmHg 64%
    20:00 +11°C° 0 mm 3 m/S 752 mmHg 68%
    21:00 +9°C° 0 mm 3 m/S 752 mmHg 71%
    22:00 +9°C° 0 mm 2 m/S 753 mmHg 74%
    23:00 +8°C° 0 mm 2 m/S 753 mmHg 77%

    29 August, Donnerstag

    Zeit Temperatur Niederschläge Wind Luftdruck Luftfeuchtigkeit
    00:00 +8°C° 0 mm 2 m/S 753 mmHg 79%
    01:00 +8°C° 0 mm 2 m/S 753 mmHg 81%
    02:00 +7°C° 0 mm 2 m/S 753 mmHg 83%
    03:00 +7°C° 0 mm 2 m/S 754 mmHg 85%
    04:00 +7°C° 0 mm 2 m/S 754 mmHg 86%
    05:00 +7°C° 0 mm 2 m/S 754 mmHg 87%
    06:00 +6°C° 0 mm 2 m/S 754 mmHg 88%
    07:00 +8°C° 0 mm 2 m/S 754 mmHg 81%
    08:00 +10°C° 0 mm 2 m/S 754 mmHg 74%
    09:00 +13°C° 0 mm 2 m/S 754 mmHg 67%
    10:00 +14°C° 0 mm 2 m/S 754 mmHg 61%
    11:00 +15°C° 0 mm 2 m/S 753 mmHg 56%
    12:00 +17°C° 0 mm 2 m/S 753 mmHg 51%
    13:00 +17°C° 0 mm 2 m/S 753 mmHg 52%
    14:00 +18°C° 0 mm 2 m/S 753 mmHg 54%
    15:00 +19°C° 0 mm 2 m/S 752 mmHg 55%
    16:00 +18°C° 0 mm 2 m/S 752 mmHg 60%
    17:00 +18°C° 0 mm 2 m/S 752 mmHg 64%
    18:00 +19°C° 0 mm 1 m/S 752 mmHg 69%
    19:00 +17°C° 0 mm 2 m/S 751 mmHg 73%
    20:00 +15°C° 0 mm 2 m/S 751 mmHg 76%
    21:00 +14°C° 0 mm 2 m/S 751 mmHg 80%
    22:00 +14°C° 0 mm 2 m/S 751 mmHg 81%
    23:00 +12°C° 0 mm 3 m/S 751 mmHg 82%

    30 August, Freitag

    Zeit Temperatur Niederschläge Wind Luftdruck Luftfeuchtigkeit
    00:00 +12°C° 0 mm 3 m/S 751 mmHg 83%
    01:00 +12°C° 0 mm 3 m/S 750 mmHg 85%
    02:00 +11°C° 0 mm 3 m/S 750 mmHg 86%
    03:00 +11°C° 0 mm 3 m/S 750 mmHg 87%
    04:00 +11°C° 0 mm 3 m/S 750 mmHg 88%
    05:00 +11°C° 0 mm 3 m/S 749 mmHg 89%
    06:00 +11°C° 0 mm 4 m/S 749 mmHg 89%
    07:00 +12°C° 0 mm 4 m/S 749 mmHg 83%
    08:00 +14°C° 0 mm 5 m/S 749 mmHg 77%
    09:00 +16°C° 0 mm 5 m/S 749 mmHg 72%
    10:00 +17°C° 0 mm 5 m/S 749 mmHg 68%
    11:00 +19°C° 0 mm 5 m/S 749 mmHg 64%
    12:00 +21°C° 0 mm 5 m/S 749 mmHg 61%
    13:00 +21°C° 0.1 mm 5 m/S 749 mmHg 61%
    14:00 +21°C° 0.1 mm 5 m/S 749 mmHg 62%
    15:00 +21°C° 0.1 mm 4 m/S 749 mmHg 63%
    16:00 +20°C° 0.2 mm 4 m/S 749 mmHg 69%
    17:00 +19°C° 0.2 mm 3 m/S 749 mmHg 74%
    18:00 +18°C° 0.2 mm 3 m/S 749 mmHg 80%
    19:00 +17°C° 0 mm 2 m/S 749 mmHg 84%
    20:00 +15°C° 0 mm 2 m/S 749 mmHg 88%
    21:00 +14°C° 0 mm 2 m/S 750 mmHg 91%
    22:00 +13°C° 0 mm 2 m/S 750 mmHg 90%
    23:00 +13°C° 0 mm 2 m/S 750 mmHg 89%

    31 August, Samstag

    Zeit Temperatur Niederschläge Wind Luftdruck Luftfeuchtigkeit
    00:00 +12°C° 0 mm 2 m/S 750 mmHg 88%
    01:00 +12°C° 0 mm 2 m/S 750 mmHg 88%
    02:00 +12°C° 0 mm 2 m/S 750 mmHg 88%
    03:00 +10°C° 0 mm 2 m/S 750 mmHg 89%
    04:00 +10°C° 0 mm 2 m/S 750 mmHg 90%
    05:00 +10°C° 0 mm 2 m/S 750 mmHg 91%
    06:00 +10°C° 0 mm 2 m/S 749 mmHg 92%
    07:00 +13°C° 0 mm 2 m/S 749 mmHg 89%
    08:00 +15°C° 0 mm 2 m/S 749 mmHg 85%
    09:00 +17°C° 0 mm 2 m/S 749 mmHg 81%
    10:00 +18°C° 0 mm 2 m/S 749 mmHg 74%
    11:00 +20°C° 0 mm 2 m/S 749 mmHg 67%
    12:00 +21°C° 0 mm 2 m/S 749 mmHg 60%
    13:00 +23°C° 0 mm 2 m/S 749 mmHg 58%
    14:00 +22°C° 0 mm 3 m/S 748 mmHg 56%
    15:00 +24°C° 0 mm 3 m/S 748 mmHg 54%
    16:00 +22°C° 0 mm 3 m/S 748 mmHg 59%
    17:00 +21°C° 0 mm 3 m/S 748 mmHg 64%
    18:00 +21°C° 0 mm 3 m/S 747 mmHg 68%
    19:00 +19°C° 0 mm 3 m/S 747 mmHg 71%
    20:00 +18°C° 0 mm 2 m/S 747 mmHg 73%
    21:00 +16°C° 0 mm 2 m/S 747 mmHg 76%
    22:00 +15°C° 0 mm 2 m/S 747 mmHg 77%
    23:00 +15°C° 0 mm 2 m/S 747 mmHg 78%
    Mehr zeigen